This demonstration page uses our WeatherBlox Daily Observations layout. Learn more.

Left ArrowRight Arrow

30.00354, -91.81873

Hourly Observations for August 2, 2022

Temp ( °F °C ) Dew Point ( °F °C ) Humidity (%) Winds ( mph kmh ) Pressure ( in mb ) Visibility ( mi km ) Precip ( " mm )
12:53 am 00:53 Clear 76 24.4 74 23.3 94 94 SE 5 7 30.06 1018 10 16 0.00 0.00
1:53 am 01:53 Clear 76 24.4 74 23.3 94 94 SE 5 7 30.05 1018 10 16 0.00 0.00
2:53 am 02:53 Clear 76 24.4 74 23.3 94 94 SE 3 6 30.04 1017 10 16 0.00 0.00
3:53 am 03:53 Clear 76 24.4 74 23.3 94 94 SE 3 6 30.05 1018 10 16 0.00 0.00
4:53 am 04:53 Clear 77 25 75 23.9 94 94 Calm 30.06 1018 10 16 0.00 0.00
5:53 am 05:53 Clear 77 25 74 23.3 90 90 Calm 30.08 1019 10 16 0.00 0.00
6:53 am 06:53 Sunny 77 25 75 23.9 94 94 ESE 3 6 30.08 1019 10 16 0.00 0.00
7:40 am 07:40 Partly Cloudy with Nearby Thunderstorms 78 25.6 76 24.4 93 93 ESE 3 6 30.09 1019 10 16 0.00 0.00
7:53 am 07:53 Partly Cloudy 78 25.6 76 24.4 93 93 W 3 6 30.09 1019 10 16 0.00 0.00
8:32 am 08:32 Sunny with Nearby Thunderstorms 81 27.2 72 22.2 74 74 NNW 8 13 30.11 1020 10 16 0.00 0.00
8:53 am 08:53 Mostly Cloudy 83 28.3 71 21.7 67 67 N 8 13 30.10 1019 10 16 0.00 0.00
9:53 am 09:53 Partly Cloudy 83 28.3 73 22.8 72 72 VRB 3 6 30.10 1019 10 16 0.00 0.00
10:53 am 10:53 Sunny 87 30.6 74 23.3 65 65 ESE 8 13 30.09 1019 10 16 0.00 0.00
11:45 am 11:45 Mostly Cloudy with Nearby Thunderstorms 80 26.7 71 21.7 74 74 S 15 24 30.12 1020 10 16 0.00 0.00
11:53 am 11:53 Mostly Cloudy with Nearby Thunderstorms 82 27.8 70 21.1 67 67 SSW 13 20 30.11 1020 10 16 0.00 0.00
12:01 pm 12:01 Cloudy with Nearby Thunderstorms 80 26.7 70 21.1 71 71 SSW 8 13 30.11 1020 9 14 0.00 0.00
12:09 pm 12:09 Cloudy with Strong Thunderstorms 77 25 71 21.7 82 82 SW 9 15 30.12 1020 2 3 0.05 1.27
12:24 pm 12:24 Cloudy with Nearby Thunderstorms 76 24.4 72 22.2 88 88 SW 7 11 30.11 1020 7 11 0.07 1.78
12:51 pm 12:51 Cloudy 77 25 73 23 89 89 Calm 30.10 1019 10 16 0.07 1.78
12:53 pm 12:53 Cloudy 77 25 73 22.8 88 88 SSW 5 7 30.10 1019 10 16 0.07 1.78
1:53 pm 13:53 Mostly Cloudy with Light Rain 78 25.6 73 22.8 85 85 Calm 30.06 1018 9 14 0.01 0.25
2:53 pm 14:53 Cloudy 79 26.1 75 23.9 88 88 SSW 3 6 30.06 1018 10 16 0.03 0.76
3:53 pm 15:53 Mostly Cloudy 80 26.7 74 23.3 82 82 NNE 5 7 30.06 1018 10 16 0.00 0.00
4:53 pm 16:53 Mostly Cloudy with Light Rain 79 26.1 75 23.9 88 88 Calm 30.05 1018 10 16 0.03 0.76
5:53 pm 17:53 Partly Cloudy with Light Rain 80 26.7 76 24.4 87 87 ESE 3 6 30.03 1017 10 16 0.01 0.25
6:53 pm 18:53 Sunny 80 26.7 77 25 90 90 SSE 3 6 30.02 1017 10 16 0.00 0.00
7:53 pm 19:53 Sunny 80 26.7 76 24.4 87 87 ESE 6 9 30.02 1017 10 16 0.00 0.00
8:53 pm 20:53 Clear 78 25.6 75 23.9 90 90 SSE 5 7 30.00 1016 10 16 0.00 0.00
9:53 pm 21:53 Clear 77 25 75 23.9 94 94 SSE 5 7 29.99 1016 10 16 0.00 0.00
10:53 pm 22:53 Clear 77 25 74 23.3 90 90 Calm 29.98 1015 10 16 0.00 0.00
11:53 pm 23:53 Partly Cloudy 77 25 75 23.9 94 94 ESE 3 6 30.00 1016 10 16 0.00 0.00

Powered by AerisWeather